Time,TemperatureF,DewpointF,PressureIn,WindDirection,WindDirectionDegrees,WindSpeedMPH,WindSpeedGustMPH,Humidity,HourlyPrecipIn,Conditions,Clouds,dailyrainin,SoftwareType,DateUTC
2013-02-26 00:01:00,23.0,23.0,30.12,South,173,9.0,24.0,98,0.00,,,-99.99,,2013-02-26 05:01:00,
2013-02-26 00:12:00,23.0,23.0,30.12,South,173,9.0,24.0,98,0.00,,,-99.99,,2013-02-26 05:12:00,
2013-02-26 00:22:00,23.0,23.0,30.12,South,173,9.0,24.0,98,0.00,,,-99.99,,2013-02-26 05:22:00,
2013-02-26 00:32:00,25.0,25.0,30.12,South,183,11.0,20.0,99,0.00,,,-99.99,,2013-02-26 05:32:00,
2013-02-26 00:43:00,25.0,25.0,30.12,South,183,11.0,20.0,99,0.00,,,-99.99,,2013-02-26 05:43:00,
2013-02-26 00:52:00,26.0,26.0,30.11,South,187,17.0,21.0,100,0.00,,,-99.99,,2013-02-26 05:52:00,
2013-02-26 01:02:00,26.0,26.0,30.09,SSE,159,14.0,25.0,100,0.00,,,-99.99,,2013-02-26 06:02:00,
2013-02-26 01:11:00,26.0,26.0,30.09,SSE,159,14.0,25.0,100,0.00,,,-99.99,,2013-02-26 06:11:00,
2013-02-26 01:21:00,25.0,25.0,30.08,SSW,198,18.0,21.0,100,0.00,,,-99.99,,2013-02-26 06:21:00,
2013-02-26 01:32:00,26.0,26.0,30.07,SSW,198,11.0,24.0,100,0.00,,,-99.99,,2013-02-26 06:32:00,
2013-02-26 01:42:00,26.0,26.0,30.07,SSW,198,11.0,24.0,100,0.00,,,-99.99,,2013-02-26 06:42:00,
2013-02-26 01:52:00,26.0,26.0,30.07,South,173,13.0,22.0,100,0.00,,,-99.99,,2013-02-26 06:52:00,
2013-02-26 02:01:00,26.0,26.0,30.07,SSW,193,18.0,22.0,100,0.00,,,-99.99,,2013-02-26 07:01:00,
2013-02-26 02:11:00,26.0,26.0,30.07,SSW,193,18.0,22.0,100,0.00,,,-99.99,,2013-02-26 07:11:00,
2013-02-26 02:22:00,24.0,24.0,30.06,North,359,4.0,20.0,100,0.00,,,-99.99,,2013-02-26 07:22:00,
2013-02-26 02:32:00,24.0,24.0,30.05,North,359,1.0,30.0,100,0.00,,,-99.99,,2013-02-26 07:32:00,
2013-02-26 02:42:00,24.0,24.0,30.05,North,359,1.0,30.0,100,0.00,,,-99.99,,2013-02-26 07:42:00,
2013-02-26 02:51:00,26.0,26.0,30.04,South,191,17.0,25.0,100,0.00,,,-99.99,,2013-02-26 07:51:00,
2013-02-26 03:02:00,28.0,28.0,30.01,South,174,24.0,26.0,100,0.00,,,-99.99,,2013-02-26 08:02:00,
2013-02-26 03:11:00,28.0,28.0,30.01,South,172,13.0,30.0,100,0.00,,,-99.99,,2013-02-26 08:11:00,
2013-02-26 03:21:00,28.0,28.0,30.01,South,172,13.0,30.0,100,0.00,,,-99.99,,2013-02-26 08:21:00,
2013-02-26 03:32:00,28.0,28.0,30.01,SSW,197,17.0,29.0,100,0.00,,,-99.99,,2013-02-26 08:32:00,
2013-02-26 03:42:00,28.0,28.0,30.01,SSW,197,17.0,29.0,100,0.00,,,-99.99,,2013-02-26 08:42:00,
2013-02-26 03:52:00,29.0,29.0,30.00,SSE,158,15.0,26.0,100,0.00,,,-99.99,,2013-02-26 08:52:00,
2013-02-26 04:02:00,29.0,29.0,29.99,South,177,10.0,24.0,99,0.00,,,-99.99,,2013-02-26 09:02:00,
2013-02-26 04:11:00,29.0,29.0,29.99,South,177,10.0,24.0,99,0.00,,,-99.99,,2013-02-26 09:11:00,
2013-02-26 04:21:00,29.0,29.0,29.99,South,177,10.0,24.0,99,0.00,,,-99.99,,2013-02-26 09:21:00,
2013-02-26 04:32:00,29.0,29.0,30.00,SSE,165,15.0,23.0,99,0.00,,,-99.99,,2013-02-26 09:32:00,
2013-02-26 04:43:00,29.0,29.0,30.00,SSE,165,15.0,23.0,99,0.00,,,-99.99,,2013-02-26 09:43:00,
2013-02-26 04:52:00,29.0,29.0,30.01,South,176,15.0,26.0,99,0.00,,,-99.99,,2013-02-26 09:52:00,
2013-02-26 05:01:00,30.0,30.0,29.98,East,100,18.0,25.0,99,0.00,,,-99.99,,2013-02-26 10:01:00,
2013-02-26 05:11:00,30.0,30.0,29.98,East,100,18.0,25.0,99,0.00,,,-99.99,,2013-02-26 10:11:00,
2013-02-26 05:21:00,31.0,31.0,29.99,South,170,10.0,20.0,99,0.00,,,-99.99,,2013-02-26 10:21:00,
2013-02-26 05:32:00,31.0,31.0,29.98,SE,139,7.0,17.0,99,0.01,,,-99.99,,2013-02-26 10:32:00,
2013-02-26 05:42:00,31.0,31.0,29.98,SE,139,7.0,17.0,99,0.01,,,-99.99,,2013-02-26 10:42:00,
2013-02-26 05:52:00,31.0,31.0,29.98,South,172,13.0,22.0,99,0.02,,,-99.99,,2013-02-26 10:52:00,
2013-02-26 06:01:00,31.0,31.0,29.97,South,186,11.0,24.0,98,0.04,,,-99.99,,2013-02-26 11:01:00,
2013-02-26 06:12:00,31.0,31.0,29.97,South,186,11.0,24.0,98,0.04,,,-99.99,,2013-02-26 11:12:00,
2013-02-26 06:22:00,30.0,29.0,29.98,North,359,0.0,26.0,98,0.04,,,-99.99,,2013-02-26 11:22:00,
2013-02-26 06:32:00,30.0,29.0,29.96,North,359,0.0,0.0,98,0.05,,,-99.99,,2013-02-26 11:32:00,
2013-02-26 06:42:00,31.0,31.0,29.94,North,359,0.0,0.0,98,0.06,,,-99.99,,2013-02-26 11:42:00,
2013-02-26 06:52:00,31.0,31.0,29.94,North,359,0.0,0.0,98,0.06,,,-99.99,,2013-02-26 11:52:00,
2013-02-26 07:02:00,31.0,31.0,29.94,North,359,0.0,0.0,98,0.06,,,-99.99,,2013-02-26 12:02:00,
2013-02-26 07:11:00,31.0,31.0,29.94,North,359,0.0,0.0,98,0.06,,,-99.99,,2013-02-26 12:11:00,
2013-02-26 07:22:00,31.0,31.0,29.94,North,359,0.0,0.0,98,0.06,,,-99.99,,2013-02-26 12:22:00,
2013-02-26 07:32:00,30.0,29.0,29.94,North,359,0.0,0.0,98,0.06,,,-99.99,,2013-02-26 12:32:00,
2013-02-26 07:42:00,30.0,29.0,29.94,North,359,0.0,0.0,98,0.06,,,-99.99,,2013-02-26 12:42:00,
2013-02-26 07:53:00,30.0,29.0,29.93,North,359,0.0,0.0,98,0.05,,,-99.99,,2013-02-26 12:53:00,
2013-02-26 08:02:00,31.0,31.0,29.92,North,359,0.0,0.0,98,0.05,,,-99.99,,2013-02-26 13:02:00,
2013-02-26 08:11:00,31.0,31.0,29.92,North,359,0.0,0.0,98,0.05,,,-99.99,,2013-02-26 13:11:00,
2013-02-26 08:22:00,31.0,31.0,29.92,North,359,0.0,0.0,98,0.05,,,-99.99,,2013-02-26 13:22:00,
2013-02-26 08:32:00,30.0,29.0,29.91,North,359,0.0,0.0,98,0.03,,,-99.99,,2013-02-26 13:32:00,
2013-02-26 08:42:00,30.0,29.0,29.91,North,359,0.0,0.0,98,0.03,,,-99.99,,2013-02-26 13:42:00,
2013-02-26 08:51:00,30.0,29.0,29.90,North,359,0.0,0.0,98,0.02,,,-99.99,,2013-02-26 13:51:00,
2013-02-26 09:01:00,30.0,29.0,29.90,North,359,0.0,0.0,98,0.02,,,-99.99,,2013-02-26 14:01:00,
2013-02-26 09:11:00,30.0,29.0,29.90,North,359,0.0,0.0,98,0.02,,,-99.99,,2013-02-26 14:11:00,
2013-02-26 09:21:00,30.0,29.0,29.89,North,359,0.0,0.0,98,0.03,,,-99.99,,2013-02-26 14:21:00,
2013-02-26 09:32:00,31.0,31.0,29.88,North,359,0.0,0.0,98,0.07,,,-99.99,,2013-02-26 14:32:00,
2013-02-26 09:42:00,31.0,31.0,29.88,North,359,0.0,0.0,98,0.07,,,-99.99,,2013-02-26 14:42:00,
2013-02-26 09:52:00,31.0,31.0,29.86,North,359,0.0,0.0,98,0.09,,,-99.99,,2013-02-26 14:52:00,
2013-02-26 10:02:00,31.0,31.0,29.87,North,359,0.0,0.0,98,0.11,,,-99.99,,2013-02-26 15:02:00,
2013-02-26 10:11:00,31.0,31.0,29.87,North,359,0.0,0.0,98,0.11,,,-99.99,,2013-02-26 15:11:00,
2013-02-26 10:22:00,31.0,31.0,29.87,North,359,0.0,0.0,98,0.11,,,-99.99,,2013-02-26 15:22:00,
2013-02-26 10:32:00,31.0,31.0,29.85,North,359,0.0,0.0,98,0.11,,,-99.99,,2013-02-26 15:32:00,
2013-02-26 10:42:00,31.0,31.0,29.85,North,359,0.0,0.0,98,0.11,,,-99.99,,2013-02-26 15:42:00,
2013-02-26 10:52:00,32.0,32.0,29.82,North,359,0.0,0.0,98,0.11,,,-99.99,,2013-02-26 15:52:00,
2013-02-26 11:02:00,32.0,32.0,29.83,North,359,0.0,0.0,98,0.10,,,-99.99,,2013-02-26 16:02:00,
2013-02-26 11:11:00,32.0,32.0,29.83,North,359,0.0,0.0,98,0.10,,,-99.99,,2013-02-26 16:11:00,
2013-02-26 11:22:00,31.0,31.0,29.80,North,359,0.0,0.0,98,0.07,,,-99.99,,2013-02-26 16:22:00,
2013-02-26 11:32:00,30.0,29.0,29.81,North,359,0.0,0.0,98,0.05,,,-99.99,,2013-02-26 16:32:00,
2013-02-26 11:42:00,30.0,29.0,29.81,North,359,0.0,0.0,98,0.05,,,-99.99,,2013-02-26 16:42:00,
2013-02-26 11:52:00,30.0,29.0,29.79,North,359,0.0,0.0,98,0.03,,,-99.99,,2013-02-26 16:52:00,
2013-02-26 12:01:00,31.0,30.0,29.77,North,359,0.0,0.0,97,0.01,,,-99.99,,2013-02-26 17:01:00,
2013-02-26 12:11:00,31.0,30.0,29.79,North,359,0.0,0.0,97,0.01,,,-99.99,,2013-02-26 17:11:00,
2013-02-26 12:21:00,31.0,30.0,29.79,North,359,0.0,0.0,97,0.01,,,-99.99,,2013-02-26 17:21:00,
2013-02-26 12:32:00,31.0,30.0,29.78,North,359,0.0,0.0,97,0.01,,,-99.99,,2013-02-26 17:32:00,
2013-02-26 12:42:00,31.0,30.0,29.78,North,359,0.0,0.0,97,0.01,,,-99.99,,2013-02-26 17:42:00,
2013-02-26 12:52:00,31.0,30.0,29.75,North,359,0.0,0.0,97,0.01,,,-99.99,,2013-02-26 17:52:00,
2013-02-26 13:02:00,31.0,30.0,29.73,North,359,0.0,0.0,97,0.00,,,-99.99,,2013-02-26 18:02:00,
2013-02-26 13:12:00,31.0,30.0,29.73,North,359,0.0,0.0,97,0.00,,,-99.99,,2013-02-26 18:12:00,
2013-02-26 13:21:00,31.0,30.0,29.73,North,359,0.0,0.0,97,0.00,,,-99.99,,2013-02-26 18:21:00,
2013-02-26 13:32:00,31.0,30.0,29.74,North,359,0.0,0.0,97,0.00,,,-99.99,,2013-02-26 18:32:00,
2013-02-26 13:42:00,31.0,30.0,29.74,North,359,0.0,0.0,97,0.00,,,-99.99,,2013-02-26 18:42:00,
2013-02-26 13:52:00,31.0,30.0,29.74,North,359,0.0,0.0,97,0.00,,,-99.99,,2013-02-26 18:52:00,
2013-02-26 14:01:00,31.0,30.0,29.73,North,359,0.0,0.0,97,0.00,,,-99.99,,2013-02-26 19:01:00,
2013-02-26 14:11:00,31.0,30.0,29.73,North,359,0.0,0.0,97,0.00,,,-99.99,,2013-02-26 19:11:00,
2013-02-26 14:22:00,31.0,30.0,29.74,North,359,0.0,0.0,97,0.00,,,-99.99,,2013-02-26 19:22:00,
2013-02-26 14:32:00,32.0,31.0,29.73,North,359,0.0,0.0,97,0.00,,,-99.99,,2013-02-26 19:32:00,
2013-02-26 14:42:00,32.0,31.0,29.73,North,359,0.0,0.0,97,0.00,,,-99.99,,2013-02-26 19:42:00,
2013-02-26 14:52:00,32.0,31.0,29.73,North,359,0.0,0.0,97,0.00,,,-99.99,,2013-02-26 19:52:00,
2013-02-26 15:01:00,32.0,31.0,29.72,North,359,0.0,0.0,97,0.00,,,-99.99,,2013-02-26 20:01:00,
2013-02-26 15:11:00,32.0,31.0,29.72,North,359,0.0,0.0,97,0.00,,,-99.99,,2013-02-26 20:11:00,
2013-02-26 15:22:00,32.0,31.0,29.72,North,359,0.0,0.0,97,0.00,,,-99.99,,2013-02-26 20:22:00,
2013-02-26 15:32:00,32.0,31.0,29.71,North,359,0.0,0.0,97,0.00,,,-99.99,,2013-02-26 20:32:00,
2013-02-26 15:41:00,32.0,31.0,29.71,North,359,0.0,0.0,97,0.00,,,-99.99,,2013-02-26 20:41:00,
2013-02-26 15:52:00,32.0,31.0,29.71,North,359,0.0,0.0,97,0.00,,,-99.99,,2013-02-26 20:52:00,
2013-02-26 16:01:00,32.0,31.0,29.71,North,359,0.0,0.0,97,0.00,,,-99.99,,2013-02-26 21:01:00,
2013-02-26 16:11:00,33.0,32.0,29.72,North,359,0.0,0.0,97,0.00,,,-99.99,,2013-02-26 21:11:00,
2013-02-26 16:21:00,33.0,32.0,29.72,North,359,0.0,0.0,97,0.00,,,-99.99,,2013-02-26 21:21:00,
2013-02-26 16:31:00,33.0,32.0,29.72,North,359,0.0,0.0,97,0.00,,,-99.99,,2013-02-26 21:31:00,
2013-02-26 16:41:00,33.0,32.0,29.72,North,359,0.0,0.0,97,0.00,,,-99.99,,2013-02-26 21:41:00,
2013-02-26 16:51:00,33.0,32.0,29.71,North,359,0.0,0.0,97,0.00,,,-99.99,,2013-02-26 21:51:00,
2013-02-26 17:01:00,33.0,32.0,29.69,North,359,0.0,0.0,97,0.00,,,-99.99,,2013-02-26 22:01:00,
2013-02-26 17:11:00,33.0,32.0,29.69,North,359,0.0,0.0,97,0.00,,,-99.99,,2013-02-26 22:11:00,
2013-02-26 17:21:00,33.0,32.0,29.69,North,359,0.0,0.0,97,0.00,,,-99.99,,2013-02-26 22:21:00,
2013-02-26 17:32:00,34.0,33.0,29.69,North,359,0.0,0.0,96,0.00,,,-99.99,,2013-02-26 22:32:00,
2013-02-26 17:41:00,34.0,33.0,29.69,North,359,0.0,0.0,96,0.00,,,-99.99,,2013-02-26 22:41:00,
2013-02-26 17:52:00,34.0,33.0,29.68,North,359,0.0,0.0,96,0.00,,,-99.99,,2013-02-26 22:52:00,
2013-02-26 18:01:00,34.0,33.0,29.70,North,359,0.0,0.0,96,0.00,,,-99.99,,2013-02-26 23:01:00,
2013-02-26 18:11:00,34.0,33.0,29.70,North,359,0.0,0.0,96,0.00,,,-99.99,,2013-02-26 23:11:00,
2013-02-26 18:21:00,34.0,33.0,29.70,North,359,0.0,0.0,96,0.00,,,-99.99,,2013-02-26 23:21:00,
2013-02-26 18:32:00,33.0,32.0,29.71,North,359,0.0,0.0,96,0.00,,,-99.99,,2013-02-26 23:32:00,
2013-02-26 18:42:00,33.0,32.0,29.71,North,359,0.0,0.0,96,0.00,,,-99.99,,2013-02-26 23:42:00,
2013-02-26 18:52:00,33.0,32.0,29.72,North,359,0.0,0.0,96,0.00,,,-99.99,,2013-02-26 23:52:00,
2013-02-26 19:02:00,33.0,32.0,29.73,North,359,0.0,0.0,96,0.00,,,-99.99,,2013-02-27 00:02:00,
2013-02-26 19:11:00,33.0,32.0,29.73,North,359,0.0,0.0,96,0.00,,,-99.99,,2013-02-27 00:11:00,
2013-02-26 19:22:00,33.0,32.0,29.73,North,359,0.0,0.0,96,0.00,,,-99.99,,2013-02-27 00:22:00,
2013-02-26 19:32:00,32.0,31.0,29.73,North,359,0.0,0.0,96,0.00,,,-99.99,,2013-02-27 00:32:00,
2013-02-26 19:42:00,32.0,31.0,29.73,North,359,0.0,0.0,96,0.00,,,-99.99,,2013-02-27 00:42:00,
2013-02-26 19:52:00,32.0,31.0,29.74,North,359,0.0,0.0,96,0.00,,,-99.99,,2013-02-27 00:52:00,
2013-02-26 20:01:00,32.0,31.0,29.74,North,359,0.0,0.0,96,0.00,,,-99.99,,2013-02-27 01:01:00,
2013-02-26 20:11:00,32.0,31.0,29.74,North,359,0.0,0.0,96,0.00,,,-99.99,,2013-02-27 01:11:00,
2013-02-26 20:22:00,32.0,31.0,29.74,North,359,0.0,0.0,96,0.00,,,-99.99,,2013-02-27 01:22:00,
2013-02-26 20:32:00,32.0,31.0,29.74,North,359,0.0,0.0,96,0.00,,,-99.99,,2013-02-27 01:32:00,
2013-02-26 20:42:00,32.0,31.0,29.74,North,359,0.0,0.0,96,0.00,,,-99.99,,2013-02-27 01:42:00,
2013-02-26 20:51:00,32.0,31.0,29.74,North,359,0.0,0.0,96,0.00,,,-99.99,,2013-02-27 01:51:00,
2013-02-26 21:02:00,32.0,31.0,29.73,North,359,0.0,0.0,96,0.00,,,-99.99,,2013-02-27 02:02:00,
2013-02-26 21:16:00,32.0,31.0,29.73,North,359,0.0,0.0,96,0.00,,,-99.99,,2013-02-27 02:16:00,
2013-02-26 21:24:00,32.0,31.0,29.74,North,359,0.0,0.0,96,0.00,,,-99.99,,2013-02-27 02:24:00,
2013-02-26 21:32:00,32.0,31.0,29.75,North,359,0.0,0.0,96,0.00,,,-99.99,,2013-02-27 02:32:00,
2013-02-26 21:42:00,32.0,31.0,29.75,North,359,0.0,0.0,96,0.00,,,-99.99,,2013-02-27 02:42:00,
2013-02-26 21:52:00,32.0,31.0,29.75,North,359,0.0,0.0,96,0.00,,,-99.99,,2013-02-27 02:52:00,
2013-02-26 22:02:00,32.0,31.0,29.76,North,359,0.0,0.0,96,0.00,,,-99.99,,2013-02-27 03:02:00,
2013-02-26 22:11:00,32.0,31.0,29.76,North,359,0.0,0.0,96,0.00,,,-99.99,,2013-02-27 03:11:00,
2013-02-26 22:22:00,32.0,31.0,29.76,North,359,0.0,0.0,96,0.00,,,-99.99,,2013-02-27 03:22:00,
2013-02-26 22:32:00,32.0,31.0,29.76,North,359,0.0,0.0,96,0.00,,,-99.99,,2013-02-27 03:32:00,
2013-02-26 22:42:00,32.0,31.0,29.76,North,359,0.0,0.0,96,0.00,,,-99.99,,2013-02-27 03:42:00,
2013-02-26 22:52:00,32.0,31.0,29.76,North,359,0.0,0.0,96,0.00,,,-99.99,,2013-02-27 03:52:00,
2013-02-26 23:02:00,32.0,31.0,29.74,North,359,0.0,0.0,96,0.00,,,-99.99,,2013-02-27 04:02:00,
2013-02-26 23:12:00,32.0,31.0,29.74,North,359,0.0,0.0,96,0.00,,,-99.99,,2013-02-27 04:12:00,
2013-02-26 23:22:00,32.0,31.0,29.74,North,359,0.0,0.0,96,0.00,,,-99.99,,2013-02-27 04:22:00,
2013-02-26 23:32:00,32.0,31.0,29.74,North,359,0.0,0.0,96,0.00,,,-99.99,,2013-02-27 04:32:00,
2013-02-26 23:42:00,32.0,31.0,29.74,North,359,0.0,0.0,96,0.00,,,-99.99,,2013-02-27 04:42:00,
2013-02-26 23:52:00,32.0,31.0,29.75,North,359,0.0,0.0,96,0.00,,,-99.99,,2013-02-27 04:52:00,